| time (UTC) | temp F | wind direction | speed MPH | gust MPH | rain 1hr in | rain 24hr in | rain mn in | humidity % | barometer mb |
| 20260507023402 | 37 | 174 | 1.0 | 3.0 | 0.00 | 0.00 | 1.23 | 78 | 1023.7 |
| 20260507022403 | 37 | 178 | 0.0 | 9.0 | 0.00 | 0.00 | 1.23 | 77 | 1023.5 |
| 20260507021404 | 37 | 158 | 3.0 | 10.0 | 0.00 | 0.00 | 1.23 | 77 | 1023.3 |
| 20260507020402 | 38 | 360 | 0.0 | 7.0 | 0.00 | 0.00 | 1.23 | 76 | 1023.2 |
| 20260507015403 | 38 | 360 | 1.0 | 0.0 | 0.00 | 0.00 | 1.23 | 76 | 1022.9 |
| 20260507014403 | 38 | 360 | 3.0 | 10.0 | 0.00 | 0.00 | 1.23 | 75 | 1022.8 |
| 20260507013404 | 39 | 174 | 1.0 | 10.0 | 0.00 | 0.00 | 1.22 | 73 | 1022.7 |
| 20260507012403 | 39 | 248 | 2.0 | 9.0 | 0.00 | 0.00 | 1.22 | 73 | 1022.5 |
| 20260507011403 | 40 | 140 | 0.0 | 9.0 | 0.00 | 0.00 | 1.22 | 72 | 1022.4 |
| 20260507010403 | 40 | 229 | 3.0 | 10.0 | 0.00 | 0.00 | 1.22 | 71 | 1022.1 |
| 20260507005404 | 41 | 112 | 0.0 | 3.0 | 0.00 | 0.00 | 1.22 | 71 | 1022.1 |
| 20260507004403 | 41 | 360 | 1.0 | 7.0 | 0.00 | 0.00 | 1.22 | 70 | 1021.9 |
| 20260507002306 | 42 | 244 | 0.0 | 3.0 | 0.00 | 0.00 | 1.22 | 67 | 1021.5 |
| 20260507001304 | 42 | 274 | 1.0 | 2.0 | 0.00 | 0.00 | 1.22 | 67 | 1021.5 |
| 20260507000303 | 42 | 328 | 0.0 | 3.0 | 0.00 | 0.00 | 1.22 | 67 | 1021.3 |
| 20260506235306 | 42 | 329 | 1.0 | 2.0 | 0.00 | 0.00 | 1.22 | 66 | 1021.2 |
| 20260506234304 | 42 | 227 | 0.0 | 0.0 | 0.00 | 0.00 | 1.22 | 60 | 1021.1 |
| 20260506233302 | 42 | 360 | 3.0 | 9.0 | 0.00 | 0.00 | 1.22 | 60 | 1021.1 |
| 20260506232306 | 42 | 328 | 2.0 | 3.0 | 0.00 | 0.00 | 1.22 | 65 | 1021.1 |
| 20260506231303 | 42 | 350 | 0.0 | 5.0 | 0.00 | 0.00 | 1.22 | 60 | 1021.1 |
| 20260506230304 | 42 | 339 | 0.0 | 4.0 | 0.00 | 0.00 | 1.22 | 61 | 1020.9 |
| 20260506224204 | 41 | 28 | 3.0 | 5.0 | 0.00 | 0.00 | 1.20 | 62 | 1020.5 |
| 20260506222103 | 40 | 7 | 1.0 | 4.0 | 0.00 | 0.00 | 1.20 | 65 | 1020.3 |
| 20260506221103 | 41 | 356 | 2.0 | 8.0 | 0.00 | 0.00 | 1.20 | 65 | 1020.3 |
| 20260506220103 | 41 | 61 | 4.0 | 7.0 | 0.00 | 0.00 | 1.20 | 64 | 1020.3 |
| 20260506215102 | 40 | 311 | 3.0 | 4.0 | 0.00 | 0.00 | 1.20 | 65 | 1020.1 |
| 20260506214103 | 40 | 329 | 2.0 | 6.0 | 0.00 | 0.00 | 1.20 | 63 | 1020.1 |
| 20260506213103 | 41 | 360 | 0.0 | 5.0 | 0.00 | 0.00 | 1.20 | 67 | 1020.1 |
| 20260506212104 | 41 | 344 | 2.0 | 3.0 | 0.00 | 0.00 | 1.20 | 67 | 1020.0 |
| 20260506210004 | 40 | 343 | 1.0 | 5.0 | 0.00 | 0.00 | 1.20 | 67 | 1020.0 |
| 20260506205003 | 40 | 17 | 0.0 | 5.0 | 0.00 | 0.00 | 1.20 | 71 | 1019.9 |
| 20260506204003 | 39 | 326 | 0.0 | 7.0 | 0.00 | 0.00 | 1.20 | 72 | 1019.9 |
| 20260506203004 | 40 | 333 | 0.0 | 4.0 | 0.00 | 0.00 | 1.20 | 68 | 1019.6 |
| 20260506202004 | 40 | 3 | 3.0 | 3.0 | 0.00 | 0.00 | 1.20 | 67 | 1019.6 |
| 20260506201003 | 40 | 261 | 0.0 | 0.0 | 0.00 | 0.00 | 0.90 | 71 | 1019.6 |
| 20260506200004 | 39 | 261 | 0.0 | 2.0 | 0.00 | 0.00 | 0.90 | 74 | 1019.7 |
| 20260506195004 | 39 | 226 | 1.0 | 0.0 | 0.00 | 0.00 | 0.90 | 75 | 1019.7 |
| 20260506194003 | 39 | 54 | 1.0 | 1.0 | 0.00 | 0.00 | 0.90 | 75 | 1019.7 |
| 20260506193004 | 38 | 335 | 0.0 | 4.0 | 0.00 | 0.00 | 0.90 | 76 | 1019.6 |
| 20260506192004 | 39 | 356 | 1.0 | 5.0 | 0.00 | 0.00 | 0.90 | 75 | 1019.6 |
| 20260506191003 | 40 | 353 | 4.0 | 7.0 | 0.00 | 0.00 | 0.90 | 70 | 1019.5 |
| 20260506190003 | 39 | 340 | 1.0 | 6.0 | 0.00 | 0.00 | 0.82 | 76 | 1019.3 |
| 20260506182803 | 38 | 3 | 0.0 | 0.0 | 0.00 | 0.00 | 0.82 | 79 | 1018.9 |
| 20260506181803 | 37 | 3 | 0.0 | 0.0 | 0.00 | 0.00 | 0.82 | 81 | 1018.9 |
| 20260506180804 | 37 | 3 | 0.0 | 0.0 | 0.00 | 0.00 | 0.82 | 81 | 1018.9 |
| 20260506175803 | 37 | 3 | 0.0 | 0.0 | 0.00 | 0.00 | 0.82 | 83 | 1019.1 |
| 20260506174803 | 37 | 3 | 0.0 | 0.0 | 0.00 | 0.00 | 0.82 | 83 | 1018.9 |
| 20260506173804 | 37 | 3 | 0.0 | 0.0 | 0.00 | 0.00 | 0.82 | 86 | 1018.9 |
| 20260506172803 | 36 | 3 | 0.0 | 0.0 | 0.00 | 0.00 | 0.82 | 87 | 1018.9 |
| 20260506171803 | 36 | 3 | 0.0 | 0.0 | 0.00 | 0.00 | 0.81 | 88 | 1018.8 |
| 20260506170804 | 35 | 3 | 0.0 | 0.0 | 0.00 | 0.00 | 0.80 | 89 | 1018.7 |
| 20260506163604 | 33 | 3 | 0.0 | 0.0 | 0.00 | 0.00 | 0.66 | 91 | 1018.7 |
| 20260506162602 | 34 | 3 | 0.0 | 0.0 | 0.00 | 0.00 | 0.52 | 92 | 1018.3 |
| 20260506161603 | 34 | 3 | 1.0 | 1.0 | 0.00 | 0.00 | 0.44 | 91 | 1018.0 |
| 20260506155504 | 35 | 3 | 0.0 | 0.0 | 0.00 | 0.00 | 0.17 | 90 | 1017.4 |
| 20260506154504 | 35 | 3 | 0.0 | 0.0 | 0.00 | 0.00 | 0.14 | 91 | 1017.1 |
| 20260506153503 | 35 | 356 | 0.0 | 8.0 | 0.00 | 0.00 | 0.07 | 90 | 1017.2 |
| 20260506152504 | 35 | 353 | 2.0 | 10.0 | 0.00 | 0.00 | 0.03 | 91 | 1017.2 |
| 20260506151504 | 35 | 41 | 4.0 | 9.0 | 0.00 | 0.00 | 0.01 | 90 | 1016.6 |
| 20260506150502 | 36 | 346 | 7.0 | 13.0 | 0.00 | 0.00 | 0.01 | 86 | 1016.2 |
| 20260506145503 | 37 | 17 | 8.0 | 19.0 | 0.00 | 0.00 | 0.01 | 82 | 1015.8 |
| 20260506144503 | 40 | 360 | 4.0 | 10.0 | 0.00 | 0.00 | 0.01 | 79 | 1015.1 |
| 20260506143503 | 41 | 25 | 5.0 | 14.0 | 0.00 | 0.00 | 0.01 | 78 | 1014.6 |
| 20260506142504 | 42 | 199 | 4.0 | 5.0 | 0.00 | 0.00 | 0.01 | 74 | 1014.4 |
| 20260506141504 | 42 | 360 | 0.0 | 5.0 | 0.00 | 0.00 | 0.01 | 75 | 1013.9 |
| 20260506140503 | 42 | 227 | 0.0 | 1.0 | 0.00 | 0.00 | 0.01 | 76 | 1013.6 |
| 20260506135503 | 43 | 169 | 1.0 | 4.0 | 0.00 | 0.00 | 0.01 | 75 | 1013.6 |
| 20260506134504 | 43 | 157 | 0.0 | 0.0 | 0.00 | 0.00 | 0.01 | 74 | 1013.8 |
| 20260506133503 | 42 | 157 | 0.0 | 0.0 | 0.00 | 0.00 | 0.01 | 75 | 1013.6 |
| 20260506132503 | 42 | 157 | 0.0 | 0.0 | 0.00 | 0.00 | 0.01 | 75 | 1013.8 |
| 20260506131504 | 42 | 157 | 0.0 | 4.0 | 0.00 | 0.00 | 0.01 | 76 | 1013.9 |
| 20260506130502 | 42 | 144 | 0.0 | 6.0 | 0.00 | 0.00 | 0.01 | 76 | 1013.9 |
| 20260506125503 | 42 | 360 | 0.0 | 0.0 | 0.00 | 0.00 | 0.01 | 76 | 1013.8 |
| 20260506124504 | 42 | 186 | 3.0 | 5.0 | 0.00 | 0.00 | 0.01 | 74 | 1013.6 |
| 20260506122404 | 42 | 133 | 0.0 | 0.0 | 0.00 | 0.00 | 0.01 | 72 | 1013.6 |
| 20260506120302 | 42 | 356 | 0.0 | 4.0 | 0.00 | 0.00 | 0.00 | 69 | 1013.6 |
| 20260506115306 | 43 | 323 | 4.0 | 6.0 | 0.00 | 0.00 | 0.00 | 68 | 1013.5 |
| 20260506114303 | 43 | 309 | 4.0 | 10.0 | 0.00 | 0.00 | 0.00 | 66 | 1013.2 |
| 20260506113304 | 43 | 349 | 0.0 | 3.0 | 0.00 | 0.00 | 0.00 | 60 | 1013.0 |
| 20260506112305 | 43 | 356 | 3.0 | 4.0 | 0.00 | 0.00 | 0.00 | 60 | 1012.8 |
| 20260506111303 | 44 | 8 | 0.0 | 7.0 | 0.00 | 0.00 | 0.00 | 61 | 1012.7 |
| 20260506110304 | 43 | 278 | 2.0 | 9.0 | 0.00 | 0.00 | 0.00 | 61 | 1012.6 |
| 20260506105305 | 43 | 116 | 2.0 | 6.0 | 0.00 | 0.00 | 0.00 | 60 | 1012.6 |
| 20260506104303 | 43 | 272 | 0.0 | 3.0 | 0.00 | 0.00 | 0.00 | 61 | 1012.6 |
| 20260506103304 | 43 | 360 | 2.0 | 5.0 | 0.00 | 0.00 | 0.00 | 60 | 1012.6 |
| 20260506101204 | 43 | 72 | 0.0 | 0.0 | 0.00 | 0.00 | 0.00 | 60 | 1012.6 |
| 20260506100203 | 42 | 72 | 0.0 | 3.0 | 0.00 | 0.00 | 0.00 | 61 | 1012.6 |
| 20260506095203 | 42 | 40 | 0.0 | 8.0 | 0.00 | 0.00 | 0.00 | 61 | 1012.6 |
| 20260506094204 | 42 | 8 | 2.0 | 7.0 | 0.00 | 0.00 | 0.00 | 61 | 1012.6 |
| 20260506093202 | 42 | 10 | 0.0 | 9.0 | 0.00 | 0.00 | 0.00 | 62 | 1012.6 |
| 20260506092202 | 42 | 17 | 3.0 | 0.0 | 0.00 | 0.00 | 0.00 | 61 | 1012.4 |
| 20260506091203 | 42 | 113 | 0.0 | 8.0 | 0.00 | 0.00 | 0.00 | 61 | 1012.4 |
| 20260506090204 | 42 | 360 | 2.0 | 2.0 | 0.00 | 0.00 | 0.00 | 62 | 1012.4 |
| 20260506085202 | 42 | 90 | 0.0 | 4.0 | 0.00 | 0.00 | 0.00 | 62 | 1012.6 |
| 20260506084205 | 42 | 137 | 0.0 | 3.0 | 0.00 | 0.00 | 0.00 | 62 | 1012.6 |
| 20260506083203 | 41 | 161 | 0.0 | 5.0 | 0.00 | 0.00 | 0.00 | 62 | 1012.6 |
| 20260506082204 | 41 | 285 | 2.0 | 5.0 | 0.00 | 0.00 | 0.00 | 62 | 1012.8 |
| 20260506081203 | 41 | 121 | 4.0 | 0.0 | 0.00 | 0.00 | 0.00 | 63 | 1012.8 |
| 20260506073004 | 42 | 131 | 0.0 | 2.0 | 0.00 | 0.00 | 0.00 | 60 | 1013.1 |
| 20260506072004 | 42 | 261 | 0.0 | 0.0 | 0.00 | 0.00 | 0.00 | 59 | 1013.2 |
| 20260506071005 | 42 | 267 | 3.0 | 7.0 | 0.00 | 0.00 | 0.00 | 58 | 1013.2 |
| 20260506060903 | 45 | 145 | 0.0 | 2.0 | 0.00 | 0.00 | 0.00 | 53 | 1013.4 |
| 20260506044605 | 47 | 352 | 3.0 | 7.0 | 0.00 | 0.00 | 0.00 | 48 | 1012.8 |
| 20260506043603 | 47 | 360 | 3.0 | 7.0 | 0.00 | 0.00 | 0.00 | 48 | 1012.7 |
| 20260506042602 | 48 | 37 | 0.0 | 10.0 | 0.00 | 0.00 | 0.00 | 47 | 1012.6 |
| 20260506041603 | 48 | 329 | 3.0 | 8.0 | 0.00 | 0.00 | 0.00 | 46 | 1012.4 |
| 20260506035503 | 48 | 346 | 3.0 | 10.0 | 0.00 | 0.00 | 0.00 | 40 | 1012.3 |
| 20260506034504 | 49 | 360 | 0.0 | 6.0 | 0.00 | 0.00 | 0.00 | 38 | 1012.0 |
| 20260506033504 | 49 | 360 | 2.0 | 9.0 | 0.00 | 0.00 | 0.00 | 38 | 1011.6 |
| 20260506032503 | 50 | 360 | 3.0 | 8.0 | 0.00 | 0.00 | 0.00 | 38 | 1011.5 |
| 20260506031503 | 50 | 243 | 3.0 | 11.0 | 0.00 | 0.00 | 0.00 | 38 | 1011.4 |
| 20260506030504 | 51 | 28 | 4.0 | 9.0 | 0.00 | 0.00 | 0.00 | 35 | 1011.4 |
| 20260506025505 | 51 | 161 | 0.0 | 9.0 | 0.00 | 0.00 | 0.00 | 33 | 1011.1 |